DW7857 Weather Reports


time (UTC)temp
C
wind
direction
speed
KPH
gust
KPH
rain 1hr
cm
rain 24hr
cm
rain mn
cm
humidity
%
barometer
mb
20260508032703 10 315 0.0 3.2 0.00 0.00 0.00 86 1012.9
20260508031803 10 315 0.0 1.6 0.00 0.00 0.00 86 1013.1
20260508031114 10 298 1.6 3.2 0.00 0.00 0.00 86 1013.1
20260508030214 10 211 1.6 3.2 0.00 0.00 0.00 86 1013.2
20260508025403 10 157 1.6 3.2 0.00 0.00 0.00 86 1013.1
20260508024503 10 162 0.0 3.2 0.00 0.00 0.00 86 1013.0
20260508023603 10 112 1.6 3.2 0.00 0.00 0.00 85 1013.3
20260508022703 10 321 0.0 3.2 0.00 0.00 0.00 84 1013.3
20260508021803 10 279 1.6 3.2 0.00 0.00 0.00 84 1013.2
20260508020903 10 174 1.6 3.2 0.00 0.00 0.00 84 1013.2
20260508020004 10 176 1.6 4.8 0.00 0.00 0.00 83 1013.1
20260508015613 10 156 1.6 4.8 0.00 0.00 0.00 82 1013.2
20260508014504 10 97 1.6 3.2 0.00 0.00 0.00 82 1013.1
20260508013603 10 190 1.6 3.2 0.00 0.00 0.00 82 1013.4
20260508012703 10 222 1.6 3.2 0.00 0.00 0.00 82 1013.7
20260508011803 10 109 3.2 3.2 0.00 0.00 0.00 81 1013.4
20260508010903 10 72 1.6 3.2 0.00 0.00 0.00 81 1013.5
20260508010003 10 204 1.6 3.2 0.00 0.00 0.00 80 1013.6
20260508005403 10 334 1.6 3.2 0.00 0.00 0.00 80 1013.7
20260508004503 10 235 1.6 3.2 0.00 0.00 0.00 80 1013.6
20260508003603 10 218 1.6 3.2 0.00 0.00 0.00 79 1013.5
20260508002914 10 212 1.6 3.2 0.00 0.00 0.00 78 1013.8
20260508001803 11 326 1.6 3.2 0.00 0.00 0.00 76 1013.7
20260508000903 11 33 1.6 3.2 0.00 0.00 0.00 75 1013.4
20260508000003 11 176 3.2 6.4 0.00 0.00 0.00 74 1013.5
20260507235403 11 186 3.2 6.4 0.00 0.00 0.00 73 1013.7
20260507234503 11 181 3.2 6.4 0.00 0.00 0.00 72 1013.9
20260507233603 11 188 3.2 6.4 0.00 0.00 0.00 71 1013.8
20260507232703 11 124 3.2 6.4 0.00 0.00 0.00 70 1013.8
20260507231803 11 211 3.2 4.8 0.00 0.00 0.00 68 1013.8
20260507230903 11 172 1.6 3.2 0.00 0.00 0.00 67 1014.1
20260507230004 11 243 1.6 3.2 0.00 0.00 0.00 65 1014.0
20260507225403 11 246 1.6 3.2 0.00 0.00 0.00 65 1014.1
20260507224504 11 150 1.6 4.8 0.00 0.00 0.00 64 1013.8
20260507223603 11 156 1.6 3.2 0.00 0.00 0.00 62 1013.8
20260507222703 11 220 0.0 3.2 0.00 0.00 0.00 61 1013.9
20260507222013 11 180 1.6 3.2 0.00 0.00 0.00 61 1013.9
20260507220903 11 182 3.2 3.2 0.00 0.00 0.00 60 1013.9
20260507220003 11 308 1.6 3.2 0.00 0.00 0.00 60 1013.9
20260507215613 11 297 0.0 3.2 0.00 0.00 0.00 60 1013.9
20260507214712 11 225 0.0 1.6 0.00 0.00 0.00 60 1014.0
20260507213603 11 225 0.0 1.6 0.00 0.00 0.00 60 1013.9
20260507212703 11 198 0.0 1.6 0.00 0.00 0.00 58 1014.2
20260507211803 11 201 1.6 3.2 0.00 0.00 0.00 57 1014.0
20260507211114 11 209 1.6 3.2 0.00 0.00 0.00 57 1014.0
20260507210004 11 185 1.6 3.2 0.00 0.00 0.00 58 1013.8
20260507205613 11 269 1.6 3.2 0.00 0.00 0.00 59 1014.0
20260507204712 11 212 1.6 3.2 0.00 0.00 0.00 61 1013.9
20260507203814 11 190 1.6 3.2 0.00 0.00 0.00 62 1014.0
20260507202703 11 90 1.6 3.2 0.00 0.00 0.00 64 1013.6
20260507201803 11 90 0.0 3.2 0.00 0.00 0.00 65 1013.6
20260507200903 11 90 0.0 1.6 0.00 0.00 0.00 66 1013.7
20260507200003 12 165 1.6 3.2 0.00 0.00 0.00 67 1013.4
20260507195403 12 164 0.0 3.2 0.00 0.00 0.00 67 1013.3
20260507194503 12 172 1.6 3.2 0.00 0.00 0.00 67 1013.4
20260507193603 12 103 1.6 3.2 0.00 0.00 0.00 66 1013.4
20260507192703 12 160 1.6 3.2 0.00 0.00 0.00 65 1013.1
20260507191803 12 166 1.6 3.2 0.00 0.00 0.00 61 1013.5
20260507190903 12 154 1.6 3.2 0.00 0.00 0.00 60 1012.9
20260507190004 12 166 1.6 3.2 0.00 0.00 0.00 58 1013.0
20260507185403 12 144 1.6 4.8 0.00 0.00 0.00 56 1012.9
20260507184503 12 199 3.2 6.4 0.00 0.00 0.00 54 1013.0
20260507183603 13 191 3.2 9.7 0.00 0.00 0.00 52 1013.0
20260507182703 13 219 4.8 6.4 0.00 0.00 0.00 51 1013.1
20260507181803 13 193 4.8 6.4 0.00 0.00 0.00 50 1013.2
20260507180903 13 197 4.8 6.4 0.00 0.00 0.00 50 1012.9
20260507180004 13 193 6.4 8.0 0.00 0.00 0.00 50 1013.1
20260507175403 13 218 8.0 9.7 0.00 0.00 0.00 50 1013.2
20260507174503 13 241 4.8 6.4 0.00 0.00 0.00 51 1013.2
20260507173603 13 182 4.8 6.4 0.00 0.00 0.00 52 1013.0
20260507172703 13 158 6.4 8.0 0.00 0.00 0.00 52 1012.9
20260507171803 14 197 6.4 8.0 0.00 0.00 0.00 51 1012.9
20260507171112 14 138 4.8 6.4 0.00 0.00 0.00 51 1013.2
20260507170003 14 137 6.4 9.7 0.00 0.00 0.00 52 1013.2
20260507165403 15 111 6.4 6.4 0.00 0.00 0.00 52 1013.0
20260507164503 15 187 8.0 11.3 0.00 0.00 0.00 51 1013.2
20260507163603 15 182 6.4 11.3 0.00 0.00 0.00 50 1013.2
20260507162703 15 159 8.0 12.9 0.00 0.00 0.00 47 1013.1
20260507161803 15 194 8.0 12.9 0.00 0.00 0.00 48 1013.2
20260507160903 15 187 11.3 16.1 0.00 0.00 0.00 46 1013.2
20260507160003 16 226 9.7 12.9 0.00 0.00 0.00 46 1013.2
20260507155403 16 205 9.7 17.7 0.00 0.00 0.00 46 1013.2
20260507154503 16 178 8.0 17.7 0.00 0.00 0.00 45 1013.3
20260507153603 16 203 8.0 17.7 0.00 0.00 0.00 44 1013.4
20260507152703 16 186 9.7 12.9 0.00 0.00 0.00 46 1013.2
20260507152014 16 163 9.7 16.1 0.00 0.00 0.00 44 1013.3
20260507151114 16 117 8.0 12.9 0.00 0.00 0.00 47 1013.3
20260507150003 16 186 8.0 12.9 0.00 0.00 0.00 46 1013.4
20260507145403 16 169 9.7 16.1 0.00 0.00 0.00 45 1013.5
20260507144503 16 196 8.0 12.9 0.00 0.00 0.00 43 1013.6
20260507143603 16 188 11.3 19.3 0.00 0.00 0.00 42 1013.5
20260507142703 16 217 12.9 19.3 0.00 0.00 0.00 43 1013.8
20260507141803 16 216 11.3 17.7 0.00 0.00 0.00 42 1013.6
20260507140903 15 194 14.5 17.7 0.00 0.00 0.00 41 1013.7
20260507140003 17 226 8.0 16.1 0.00 0.00 0.00 40 1013.8
20260507135403 17 232 9.7 22.5 0.00 0.00 0.00 42 1013.8
20260507134714 16 194 9.7 22.5 0.00 0.00 0.00 41 1013.7
20260507133603 16 157 9.7 17.7 0.00 0.00 0.00 41 1013.7
20260507132703 17 184 8.0 14.5 0.00 0.00 0.00 40 1013.8
20260507131803 16 192 8.0 17.7 0.00 0.00 0.00 41 1013.6
20260507130903 17 183 9.7 14.5 0.00 0.00 0.00 40 1013.6
20260507130003 17 216 11.3 17.7 0.00 0.00 0.00 40 1013.7
20260507125614 17 178 9.7 14.5 0.00 0.00 0.00 40 1013.7
20260507124503 16 149 11.3 12.9 0.00 0.00 0.00 42 1013.6
20260507123603 16 168 9.7 14.5 0.00 0.00 0.00 41 1013.8
20260507122705 16 182 11.3 14.5 0.00 0.00 0.00 41 1013.8
20260507121803 17 186 11.3 16.1 0.00 0.00 0.00 42 1013.6
20260507120903 16 196 9.7 17.7 0.00 0.00 0.00 44 1013.9
20260507120004 16 181 9.7 17.7 0.00 0.00 0.00 45 1014.1
20260507115403 16 155 9.7 14.5 0.00 0.00 0.00 46 1013.8
20260507114503 16 181 11.3 19.3 0.00 0.00 0.00 48 1014.0
20260507113603 16 203 11.3 19.3 0.00 0.00 0.00 49 1014.0
20260507112703 16 225 11.3 16.1 0.00 0.00 0.00 48 1013.9
20260507111803 16 204 9.7 14.5 0.00 0.00 0.00 47 1013.9
20260507110903 16 173 11.3 16.1 0.00 0.00 0.00 47 1014.0
20260507110003 16 203 11.3 16.1 0.00 0.00 0.00 49 1014.1
20260507105403 15 166 11.3 16.1 0.00 0.00 0.00 50 1014.0
20260507104713 16 139 11.3 17.7 0.00 0.00 0.00 51 1014.1
20260507103603 15 175 11.3 19.3 0.00 0.00 0.00 52 1014.3
20260507102703 15 192 11.3 16.1 0.00 0.00 0.00 50 1014.0
20260507101803 15 203 11.3 16.1 0.00 0.00 0.00 50 1014.0
20260507100903 15 186 9.7 12.9 0.00 0.00 0.00 52 1014.0
20260507100003 15 217 9.7 14.5 0.00 0.00 0.00 55 1014.2
20260507095403 14 196 9.7 14.5 0.00 0.00 0.00 54 1013.8
20260507094503 14 200 11.3 14.5 0.00 0.00 0.00 56 1014.0
20260507093603 14 189 11.3 14.5 0.00 0.00 0.00 57 1013.9
20260507092703 15 208 8.0 11.3 0.00 0.00 0.00 58 1013.8
20260507091803 15 128 6.4 8.0 0.00 0.00 0.00 59 1013.6
20260507090903 15 88 6.4 9.7 0.00 0.00 0.00 61 1013.8
20260507090004 13 200 6.4 9.7 0.00 0.00 0.00 62 1013.8
20260507085403 13 178 6.4 8.0 0.00 0.00 0.00 67 1013.8
20260507084714 13 161 6.4 12.9 0.00 0.00 0.00 69 1013.8
20260507083603 13 189 9.7 14.5 0.00 0.00 0.00 70 1013.8
20260507082703 13 112 6.4 8.0 0.00 0.00 0.00 71 1013.8
20260507081803 12 219 6.4 9.7 0.00 0.00 0.00 71 1014.0
20260507080903 12 211 6.4 8.0 0.00 0.00 0.00 71 1014.1
20260507080004 12 195 6.4 9.7 0.00 0.00 0.00 71 1013.6
20260507075403 12 204 4.8 6.4 0.00 0.00 0.00 72 1013.7
20260507074713 12 220 4.8 6.4 0.00 0.00 0.00 75 1013.7
20260507073603 11 170 4.8 8.0 0.00 0.00 0.00 76 1013.6
20260507072703 11 225 4.8 8.0 0.00 0.00 0.00 75 1013.9
20260507071803 11 250 4.8 8.0 0.00 0.00 0.00 75 1013.7
20260507070903 11 137 3.2 9.7 0.00 0.00 0.00 75 1013.6
20260507070006 10 212 1.6 3.2 0.00 0.00 0.00 75 1013.4
20260507065403 10 301 1.6 3.2 0.00 0.00 0.00 75 1013.5
20260507064503 10 227 1.6 3.2 0.00 0.00 0.00 75 1013.5
20260507063603 10 223 1.6 3.2 0.00 0.00 0.00 75 1013.3
20260507062703 9 210 1.6 3.2 0.00 0.00 0.00 75 1013.2
20260507062013 9 192 3.2 4.8 0.00 0.00 0.00 75 1013.4
20260507060903 9 179 1.6 3.2 0.00 0.00 0.00 75 1013.6
20260507060003 8 205 3.2 6.4 0.00 0.00 0.00 75 1013.6
20260507055403 8 225 3.2 3.2 0.00 0.00 0.00 76 1013.2